Location: Unspecified
(43.4354°N, 0.0000°E)
Time: 08:14:36
(UTC+00:00)

Explorer 7 - Visible Passes

Search period start: 26 June 2019 00:00
Search period end: 06 July 2019 00:00
Orbit: 485 x 680 km, 50.3° (Epoch: 25 June)

Date Brightness Start Highest point End Pass type
(mag) Time Alt. Az. Time Alt. Az. Time Alt. Az.
03 Jul 9.3 02:58:51 10° SE 02:59:31 10° SE 03:00:11 10° ESE visible
04 Jul 8.8 03:01:41 10° S 03:04:18 18° SE 03:07:01 10° E visible
05 Jul 8.0 03:06:32 14° SSW 03:09:09 28° SE 03:12:38 10° ENE visible
